﻿Date,Daily Max Temp (°F),Time of Max Temp,Daily Min Temp (°F),Time of Min Temp,Wet Bulb (°F),WetB Hrs <28F (hrs),Max Wet Bulb Temp (°F),Min Wet Bulb Temp (°F),Dew Pt (°F),Max RH (%),Min RH  (%),MinBV Day (V)
5/4/24,44.9,0001,20.6,2153,28.9,0,36.7,20.1,26.5,97,36,13
5/3/24,53.4,1355,33.8,0748,38.2,0,43.7,32.3,31.6,90,24,13
5/2/24,51.7,1449,32.1,0418,35.6,0,41.2,27.8,27.7,84,37,13
5/1/24,53.9,1630,24.3,0738,30.5,0,38.6,21.7,18.5,74,16,13
4/30/24,49.3,1435,29.4,0206,29.5,0,38.1,22.6,10.5,62,8,13
4/29/24,47.4,1459,30.3,2344,33.6,0,38.9,24.1,25.8,88,39,13
4/28/24,48.7,1359,30.5,0554,35.1,0,40.5,29.2,30.4,91,43,13
4/27/24,46.3,1344,25,0636,33,0,39.6,24.1,30,96,55,13
4/26/24,39.3,1305,27.2,2140,31.1,0,36.1,26.3,29.4,95,73,13
4/25/24,45.6,1224,29.8,0548,32.6,0,39.1,26.2,28.5,94,58,13
4/24/24,49.8,1413,32.2,2257,36.5,0,41.6,28.8,32.2,89,44,13
4/23/24,52.1,1230,37.5,2304,40.4,0,46.6,35.9,37.7,94,62,13
4/22/24,60.4,1454,39.4,0549,39.7,0,46.5,33.9,30.6,76,28,13
4/21/24,61.1,1536,38.2,0653,37.7,0,45.1,30.7,25.1,70,22,13
4/20/24,57.4,1529,37.9,0042,38.4,0,45.7,32.5,29.8,81,32,13
4/19/24,55.7,1435,36.8,0611,38,0,45.4,32.4,30.4,85,30,13
4/18/24,53.4,1513,31.3,0644,37,0,43.7,29.2,30.7,88,34,13
4/17/24,53.4,1504,38,0635,37.9,0,43.4,32.8,29.8,83,40,13
4/16/24,57,1143,29.9,0622,37.3,0,45.4,28.5,31.8,90,29,13
4/15/24,49.7,1502,26.6,0724,33.4,0,41,25.8,30.2,94,49,13
4/14/24,33.6,1251,24.3,0629,26,0,30.5,23,23.4,91,68,13
4/13/24,42.7,1302,26.6,2358,31.1,0,35.7,25.1,25.8,89,47,13
4/12/24,51.4,1104,40.1,2309,38.8,0,42.7,34.8,32.6,78,44,13
4/11/24,56.6,1256,39.6,0629,39.3,0,43.3,34.5,30.1,69,34,13
4/10/24,57.3,1349,35.3,0709,38.3,0,44.9,32.1,31.8,79,33,13
4/9/24,54.7,1538,26.5,0202,33.8,0,43.6,23.9,27,79,33,13
4/8/24,42.8,1708,18.8,0700,25.7,0,33.6,17.5,18.8,90,37,13
4/7/24,39.8,1421,15.1,0633,22.1,0,30.8,13.9,15.8,86,34,13
4/6/24,30.6,1218,14.1,0240,20.7,0,26.2,13,16.6,88,57,13
4/5/24,25.9,1302,15.3,2340,18.6,0,23,14.1,15.8,91,67,13
4/4/24,30.9,0001,16.1,2154,20.7,0,30.4,14.8,18.8,96,79,13
4/3/24,47.5,1146,30.8,2351,37.3,0,42.2,30.3,34.5,95,65,13
4/2/24,54.9,1347,30.1,0733,36.8,0,45.5,28.1,32,87,43,13
4/1/24,47.2,1549,18.8,0704,28,0,37.4,17.8,22.8,91,34,13
3/31/24,36.8,1601,22.9,2357,26.7,0,33.3,21.5,24.5,95,58,13
3/30/24,32.6,1301,19.8,0350,25.4,0,32.2,19.2,24.6,97,92,13
3/29/24,30,1316,20.4,0124,25.1,0,28.8,18.6,22.8,96,66,13
3/28/24,30.8,0130,19.7,0522,24.2,0,30.4,19.1,22.8,97,78,13
3/27/24,36.9,1045,28.8,0545,28,0,31,23.3,22.1,96,34,13
3/26/24,38.5,1257,27.2,0348,28.9,0,32.5,25.3,24.9,87,47,13
3/25/24,34.4,1321,17.4,0507,25.2,0,31,16.7,22.7,94,68,13
3/24/24,33.6,1518,19.4,2137,24.4,0,32,18.7,22.9,94,76,13
3/23/24,30.2,0001,20.4,0643,24.5,0,29.7,19.8,23.3,95,87,13
3/22/24,43.6,1300,30,2357,32.5,0,36.7,28.5,26.9,96,44,13
3/21/24,46,1628,34.5,0703,33.4,0,37.4,29.6,25.6,86,42,13
3/20/24,47.6,1504,35.9,2334,33.5,0,37.4,30.2,23.3,76,32,13
3/19/24,54.1,1413,33.2,0614,35.6,0,42.7,28.8,28.2,85,37,13
3/18/24,51.2,1637,30.1,0822,33.4,0,39.2,27.1,25.3,76,31,13
3/17/24,51.2,1613,27.4,0723,31.5,0,39.5,24.7,23.5,77,33,13
3/16/24,50,1622,25,0632,33.1,0,39.2,22.7,25,82,38,13
3/15/24,41.9,1702,20.8,0655,26.2,0,33.2,18.3,18.7,73,41,13
3/14/24,37.4,1611,17.3,0718,22.5,0,29.9,15.1,14.2,73,44,13
3/13/24,39.9,1351,17.2,0730,23,0,30.1,16.1,15.2,91,26,13
3/12/24,32.7,1220,24.2,2358,28.2,0,30.6,23.1,26.4,92,77,13
3/11/24,35.5,1344,26,0750,28.1,0,31.9,24.1,25.3,90,66,13
3/10/24,36.5,1223,27.8,2358,29.3,0,32.6,26,25,86,46,13
3/9/24,37.4,1052,29.8,0556,28.4,0,30.8,24.8,22,86,38,13
3/8/24,45.6,1438,17.2,0703,24.2,0,33.7,16.3,16.6,93,24,12.5
3/7/24,40.7,1444,19.4,0517,25.1,0,33.9,17.7,21,92,52,13
3/6/24,36.6,1441,22.2,2351,26.6,0,31.5,20.8,22,89,50,13
3/5/24,30.4,1442,23.2,0151,25.5,0,28.5,21.8,23.2,91,80,13
3/4/24,24.4,1254,16.6,0536,20.3,0,23.2,15.6,17.9,90,76,13
3/3/24,23.3,1827,16.5,0258,18.5,0,22.2,15.6,16.4,92,82,12.8
3/2/24,24.8,0027,14.3,0804,18.1,0,24,13.3,16.3,93,81,12.4
3/1/24,28.3,1557,24.3,2359,25.6,0,26.9,23.6,24.2,93,85,12.7
2/29/24,34.7,0014,26.5,2357,30,0,32.2,25.6,28.2,95,74,13
2/28/24,44,1338,26.1,0121,30.5,0,37.5,23.7,24.5,80,43,13
2/27/24,45.7,1502,21.3,0736,26.8,0,35,19.7,19.6,86,30,13
2/26/24,34.3,1214,28.8,2359,30,0,32.3,27.1,27.8,91,78,13
2/25/24,45,1135,30.4,0743,32.1,0,36.3,26.2,24.7,82,40,13
2/24/24,51.5,1149,25.1,0805,29.8,0,41.2,23.1,23,85,31,13
2/23/24,38.9,1348,22.5,0443,27.2,0,34.1,20.9,23.4,88,60,13
2/22/24,38.3,1437,16.9,0713,23.9,0,32.5,16.3,21.7,96,50,13
2/21/24,31.5,1130,19.7,2357,25.8,0,31.1,19.1,25.1,97,93,13
2/20/24,33.5,1238,26.9,0654,27.7,0,31.4,25.8,26.2,96,76,13
2/19/24,34.4,1038,28.5,0744,30,0,32.4,27.5,28.6,97,77,13
2/18/24,39.2,2020,26.9,0902,30.9,0,35.1,26.4,28.9,98,52,13
2/17/24,39.3,0928,29.6,2336,30.5,0,32.9,27.2,25.5,97,36,13
2/16/24,45.6,1356,25.2,0357,29.9,0,39.7,22.9,26.2,87,49,13
2/15/24,31,1231,23.7,1939,26.2,0,29.5,21.8,23.9,92,73,13
2/14/24,31.3,1758,26.4,2335,27.3,0,29.5,25.2,24.3,94,57,13
2/13/24,40.6,1111,28,0024,27.5,0,31.7,24.1,19.1,83,33,13
2/12/24,45.7,1223,23.9,0453,27,0,34.9,20.3,18.1,84,25,13
2/11/24,46.6,1337,19.6,0037,25.4,0,37.9,15.7,18.4,84,40,13
2/10/24,34.2,1339,12.6,0227,18.9,0,27.4,11.7,12.7,90,36,13
2/9/24,31,1241,14.7,0046,21.1,0,27.8,13.8,18,92,67,13
2/8/24,34.4,1104,15,2215,20.8,0,29.7,14.1,18.4,94,61,13
2/7/24,25.5,1242,20.7,2111,23,0,24.3,20.1,21.2,94,83,13
2/6/24,33.2,1423,22.6,0400,25.5,0,30.8,21.8,23.9,96,74,13
2/5/24,31.3,1247,25.5,1947,27.6,0,29.9,24.9,26,95,79,13
2/4/24,32.1,1621,22.9,0015,27.7,0,32,22.2,27,100,88,13
2/3/24,25.5,1112,17.8,0527,20.3,0,24.9,17.2,19,94,87,13
2/2/24,25.8,0935,19,2355,22.9,0,25.4,18.5,22,96,93,13
2/1/24,33.5,0001,23.8,2359,27.8,0,32.4,23.3,27.1,97,89,13
1/31/24,44.4,0003,32.3,1727,33.2,0,35,31,26.5,96,37,13
1/30/24,49.5,1245,39.1,0139,37.8,0,41.8,33.3,30.2,80,35,13
1/29/24,54.5,1359,36.8,2250,37.5,0,42.9,34,31.8,79,36,13
1/28/24,53.1,1357,36.4,0425,37.7,0,44,34.5,33.1,86,48,13
1/27/24,47.7,1307,36.6,0623,37.7,0,41.9,34.8,34.2,92,64,13
1/26/24,43.2,1217,27.1,0007,32.9,0,39,23.9,28.5,92,33,13
1/25/24,35.7,1434,24.8,2231,27.6,0,33.8,22.8,25.5,99,71,13
1/24/24,35.7,1426,30.1,0329,32.2,0,35.6,28.9,31.3,99,60,13
1/23/24,40.9,1318,24.3,0808,28.6,0,36,23.5,26.5,96,64,13
1/22/24,34.4,1451,29.4,2354,32.1,0,34.4,28.7,31.9,100,88,13
1/21/24,34.6,2021,29,0121,31.4,0,33.9,28.6,30.9,100,79,13
1/20/24,35.3,0130,28.8,2010,30.9,0,33,28.3,28.9,97,73,13
1/19/24,47,1456,33.3,2359,33.5,0,36.9,30.5,25.1,87,28,13
1/18/24,44.3,2257,26.5,0145,32.2,0,40,23.4,27.7,87,53,13
1/17/24,35.4,0033,26.6,2317,28.8,0,34.2,23.3,26,94,56,13
1/16/24,42.7,1139,29.4,0545,30.3,0,35.2,24.7,22.8,94,29,13
1/15/24,40,1326,24.7,0727,28.5,0,35.6,23.5,25.4,94,52,13
1/14/24,36.7,1454,27.4,2151,30.2,0,35.5,26.2,29.4,99,84,13
1/13/24,32.3,1641,26.6,0008,29.1,0,32,25.5,27.8,98,87,13
1/12/24,31.9,0200,21.1,0001,21.5,0,25.6,15.8,10.5,89,25,13
1/11/24,28.5,1139,6.4,0746,15,0,21.7,5.6,8.2,92,31,13
1/10/24,26.9,1750,16.1,2357,22.8,0,25.9,14.8,21.1,93,69,13
1/9/24,31.7,1156,23.9,2322,27.2,0,30.5,23.1,25.6,94,82,13
1/8/24,35,1426,8.8,0318,20.4,0,32.6,8.1,18.3,93,71,13
1/7/24,23.1,1444,9.3,0747,12.9,0,21.1,8.6,11,92,73,13
1/6/24,26.4,0729,11.1,0001,19.4,0,23.6,10.4,16.8,95,55,13
1/5/24,29.8,1324,17.6,2032,23.7,0,29.5,17.1,23,98,94,13
1/4/24,31.7,1113,19.6,0033,24.3,0,31.5,19.1,23.6,98,94,13
1/3/24,26.2,0001,19.5,2351,23.2,0,25.6,19,22.3,95,93,13
1/2/24,36.1,1200,24,0037,27.6,0,30.6,23.1,24.1,95,53,13
1/1/24,40.6,1128,22.2,0623,25.3,0,34.7,21.3,22.6,93,39,13
12/31/23,38.6,1149,22.8,0135,26.2,0,33.6,21.6,23.8,92,61,13
12/30/23,35.2,1415,23.2,2358,28.7,0,32.2,22.1,26.5,92,75,13
12/29/23,45.9,0430,33,2055,33.3,0,38.5,28.6,22.4,80,17,13
12/28/23,45.6,1426,34.2,0429,35.5,0,39.8,29.1,30.9,92,33,13
12/27/23,45.8,1202,31.9,1915,30.8,0,35.1,27.9,13.5,92,16,13
12/26/23,45.7,1228,33.6,0658,32.7,0,36.9,27.9,21.1,87,15,13
12/25/23,49.4,1211,33.4,0040,35.2,0,41.6,30.2,31,84,55,13
12/24/23,45.7,1232,23.2,0035,27.4,0,34.4,20.9,16.6,88,13,13
12/23/23,38.3,1258,22.1,2220,25,0,34,20,21.6,93,65,13
12/22/23,46.8,1225,26.9,2359,30.9,0,38.2,23.4,26.6,99,48,13
12/21/23,41.7,1401,29.8,0806,33.4,0,38.9,29.4,32.6,99,80,13
12/20/23,37.6,1308,30.1,0641,32.9,0,36.2,29.7,32.3,98,87,13
12/19/23,39,0117,32.3,2306,34,0,36.9,31.8,32.7,97,83,13
12/18/23,46.6,0243,33.5,0546,35.9,0,38.1,32.2,32.7,92,33,13
12/17/23,51.2,1421,33.7,0022,33.4,0,40,27.1,21.8,84,25,13
12/16/23,52.6,1329,31.5,0001,30.1,0,37.4,25.4,14.5,65,14,13
12/15/23,47.2,1232,30.3,0636,28.5,0,36.7,24.4,17.1,83,30,13
12/14/23,44.3,1247,25.5,0119,28,0,34.5,22.2,19,87,33,13
12/13/23,40.6,1312,19.8,0736,24.9,0,33.6,19,20.4,93,46,13
12/12/23,38.9,1211,23.6,0802,26.9,0,34.1,21.6,22.8,87,61,13
12/11/23,47.5,1309,27.6,2203,29.6,0,37,23.9,20.2,73,33,13
12/10/23,53.2,1119,31.6,0013,29.6,0,36.7,25.9,9.9,77,7,13
12/9/23,42.7,1231,17.3,0056,25.8,0,35.5,16.2,22.1,90,52,13
12/8/23,33.2,1244,15.2,0810,18.8,0,27.6,14.2,14.5,93,41,13
12/7/23,26.9,1752,18.7,2341,24.3,0,26.4,17.9,23.2,96,86,13
12/6/23,46.1,0159,26.1,2359,32.3,0,36.7,25.7,26.7,98,41,13
12/5/23,53.8,1252,34.4,0155,34.4,0,39.1,28.7,22.9,71,15,13
12/4/23,47.7,1317,29.6,0617,32.5,0,39,27.7,27.6,88,42,13
12/3/23,37.6,1307,32,0001,33.6,0,37.3,31.7,32.8,100,79,13
12/2/23,32.3,1555,28.5,0242,30,0,32,27.2,28.9,98,85,13
12/1/23,32.6,1151,22.2,0439,25.2,0,29,20.7,22.5,92,69,13
11/30/23,31,0931,24.6,2359,27.5,0,29.4,23.3,25.5,94,78,13
11/29/23,36.5,1210,25.9,2119,27.3,0,31,23.6,22.6,89,56,13
11/28/23,41.6,1333,25,0722,25.5,0,30.7,20.8,14.9,82,22,13
11/27/23,46.5,1149,17.6,0444,24.2,0,32.9,16.9,14.1,93,15,13
11/26/23,42.4,1309,15.6,0456,21.7,0,33,14.9,17.2,93,28,13
11/25/23,32,1313,18.4,0014,21.2,0,27.9,17.4,18.1,93,56,13
11/24/23,30.5,1402,18.4,0716,21.7,0,27.5,17.7,19.5,93,69,13
11/23/23,44.6,0001,21.8,2355,30.3,0,38.1,20.8,26.3,90,36,13
11/22/23,57.3,1201,35.3,0633,34,0,43.6,28.9,23,69,22,13
11/21/23,53,1211,27.2,0105,31.4,0,38.2,24.9,18.6,89,18,13
11/20/23,46.2,1409,18.2,0648,25.7,0,33,17.3,17.2,90,18,13
11/19/23,36.2,1354,20.8,2154,25,0,32.1,19.9,21.6,93,56,13
11/18/23,38.7,0036,27.8,2359,34.4,0,36,26.3,32.7,95,77,13
11/17/23,43.6,1159,32.2,0705,35.5,0,40,31.8,33.8,97,71,13
11/16/23,42.4,1310,32.1,2317,35.4,0,40.3,31.6,34.4,97,82,13
11/15/23,51.6,1153,32.9,2032,32.6,0,37.9,25.8,20.5,95,13,13
11/14/23,49.7,1402,35,0701,31.7,0,37.3,27.4,14.7,56,13,13
11/13/23,48.6,1404,34.7,1850,31.5,0,36.8,27.9,15.8,62,24,13
11/12/23,51,1233,34.6,0001,33.5,0,38.2,28.8,18.3,60,24,13
11/11/23,54.3,1247,32.2,0631,34,0,41.3,28.5,26.6,85,25,13
11/10/23,48.5,1105,31.7,0627,30.1,0,36.9,24.1,15.6,86,9,13
11/9/23,49,1137,22.9,0326,27.2,0,37,20.8,15.7,85,20,13
11/8/23,40.8,1414,23,0149,26.7,0,33.6,22.3,22.5,93,45,13
11/7/23,41,1242,25,2327,29.3,0,34.9,24,26.5,95,52,13
11/6/23,43,0015,31,2355,34.5,0,40.9,29.5,33.1,96,81,13
11/5/23,46.7,0929,40.9,2318,40.3,0,42.8,36.7,36.6,92,53,12.8
11/4/23,57.4,1256,42,0038,41.3,0,46.2,36.5,33.6,80,38,13
11/3/23,60.6,1540,40.7,0621,41.1,0,47.4,35.9,33.4,78,37,13
11/2/23,58.2,1241,40.8,0621,40.9,0,46.9,33.7,33.3,73,44,13
11/1/23,60.9,1219,35.3,0745,34.9,0,45.9,26.5,22.1,65,18,13
10/31/23,59.2,1510,32.5,0732,31.8,0,41.2,25.4,14.7,59,13,13
10/30/23,56.8,1339,23.4,0312,28.6,0,39.7,20.4,15.5,77,11,13
10/29/23,43.6,1406,22,0438,25.1,0,32.8,19.3,15.3,79,27,13
10/28/23,39.8,1410,23,0748,25.3,0,32.2,20.7,18,84,40,13
10/27/23,46.9,1445,27.7,0705,27.8,0,34.6,21.2,11.7,77,11,13
10/26/23,45.7,1505,20.2,0753,28.3,0,37.4,19.6,24.5,98,38,13
10/25/23,43.1,0054,29.4,1643,33.6,0,40.2,28.9,29.9,99,44,13
10/24/23,57.9,1415,35.2,0713,39,0,46.7,33.5,33.2,90,27,13
10/23/23,55.6,1429,34.8,0737,39.5,0,48.1,34.2,37.2,98,51,13
10/22/23,51.5,0145,36.4,2347,40.7,0,45,36,37.8,97,54,13
10/21/23,63.4,1440,47.2,0225,46.6,0,51.2,41.7,40.6,77,43,13
10/20/23,68.9,1315,47.4,0656,44.5,0,50.7,39.2,34.6,64,27,13
10/19/23,73,1546,47.5,0752,44.4,0,52.7,38.4,32.7,57,21,13
10/18/23,73.9,1433,42.4,0634,42.9,0,51.8,35.8,31.9,59,20,13
10/17/23,65.8,1344,41.3,0652,40.7,0,48.1,32.9,28.1,57,24,13
10/16/23,64.3,1334,47.4,2319,43.1,0,47.8,39.1,30.9,57,28,13
10/15/23,65.4,1502,42.1,0310,43.7,0,51,37.5,34.3,71,32,13
10/14/23,57,1338,45.2,0442,39.6,0,45.2,35.5,29.1,65,32,13
10/13/23,55.8,1326,33.6,0006,37.1,0,42.7,31.4,26.3,84,22,13
10/12/23,49.8,1505,28.6,0312,32.8,0,39.5,27.1,27.8,91,38,13
10/11/23,48.8,1615,31.1,2230,34.3,0,40,29.2,30.6,93,45,13
10/10/23,50,1154,37.6,1820,39.3,0,44.2,35.4,34.6,92,45,13
10/9/23,59.3,1056,45.1,2049,43.5,0,48.2,36.9,35.3,68,31,13
10/8/23,70.5,1337,48,0608,45.6,0,52,40.5,35,65,24,13
10/7/23,70.1,1534,45.3,0704,46.1,0,51.9,41.2,37.8,75,27,13
10/6/23,67.3,1518,42.6,0629,46,0,52.2,40.5,40.5,88,34,13
10/5/23,62,1516,40.7,0638,44.8,0,51,39.2,41,92,46,13
10/4/23,60.7,1519,39,0550,43.2,0,50.3,37.6,39.4,94,47,13
10/3/23,57.4,1201,37.8,0239,42.7,0,49.9,35.4,39.2,87,57,13
10/2/23,52.9,1431,31.8,0612,38.1,0,45.4,31,34.9,94,53,13
10/1/23,42.6,1411,34.8,0657,35.9,0,40,34.1,34.4,96,79,13
9/30/23,42.3,0015,36.1,0659,36.6,0,39.8,32.5,34.6,96,61,13
9/29/23,56,1216,40.2,2348,40.6,0,46.8,33.7,33.4,87,29,13
9/28/23,63.2,1352,43.2,0552,41.6,0,49,36.6,31,64,21,13
9/27/23,61.4,1325,44.5,2333,41.1,0,48,35.2,28.7,76,21,13
9/26/23,58.7,1343,44.4,0624,42.7,0,49.6,35.6,35.2,83,35,13
9/25/23,59.7,1437,46.2,0129,39.4,0,45.2,34,23.7,69,17,13
9/24/23,61.9,1510,44.1,0420,40.2,0,46.9,33.4,26,66,18,13
9/23/23,59.3,1354,39.3,0248,38.8,0,46.7,30.7,27,87,18,13
9/22/23,59.8,1502,38.9,0751,40,0,45.9,35.1,32.3,86,18,13
9/21/23,49.6,1236,34.4,0601,38.7,0,43.7,32.7,34.3,88,48,13
9/20/23,61.2,1113,44.9,2352,46.4,0,52.3,42.8,42.5,87,42,13
9/19/23,68.2,1203,44.4,0551,46.4,0,55.9,41,41.7,88,34,13
9/18/23,68.7,1042,46.2,2323,46.8,0,57.9,41.1,40.4,78,38,13
9/17/23,70.5,1347,47.3,0627,47.6,0,56.2,42.3,39.8,76,32,13
9/16/23,69.9,1014,49.8,2359,48.1,0,54.6,42,40.6,75,33,13
9/15/23,71.5,1413,45.3,0501,45.7,0,54.6,37.4,35.2,65,24,13
9/14/23,69.9,1531,46.4,0415,46,0,52.8,40.4,37.4,76,23,13
9/13/23,69,1135,46.6,0614,47.5,0,54.5,41.8,41.9,76,35,13
9/12/23,69.4,1418,45,0522,46.6,0,55.6,40.1,39.5,75,38,13
9/11/23,67.5,1135,48.9,2310,48.9,0,54.4,41.4,42.5,85,36,13
9/10/23,68,1441,51.4,2153,50.5,0,56.5,45.9,44.4,76,43,13
9/9/23,68.3,1356,52.9,2001,50.6,0,57.7,44.1,44.5,75,42,13
9/8/23,67.5,1453,47,0326,46,0,51.9,38.8,36.8,77,28,13
9/7/23,65.4,1351,45.2,0352,47,0,53.5,39.8,40.3,82,33,13
9/6/23,64.2,1435,47.4,2354,48.4,0,53.5,44,43.5,84,45,13
9/5/23,66,1457,43,0607,48.6,0,56.2,41.9,45.2,94,41,13
9/4/23,61.2,1429,37.7,0155,45.3,0,53.4,36.8,43,95,54,13
9/3/23,50.8,0046,37.9,2351,43,0,47,36.9,41,94,70,13
9/2/23,54.2,1252,45.2,0134,45.8,0,49.3,42.7,42.6,87,67,13
9/1/23,55.2,0001,43.7,2147,43.7,0,46.3,41.6,38.6,92,42,13
8/31/23,67,1435,50.3,0344,45.3,0,51.6,38.8,33.3,57,25,13
8/30/23,76.4,1418,46,0535,46,0,56.2,38.1,33.9,64,12,13
8/29/23,70.1,1402,49.8,2352,45.5,0,51.4,39.7,30.8,48,14,13
8/28/23,76.3,1314,51.6,0545,49.5,0,60.4,43.2,38.8,69,20,13
8/27/23,73.4,1330,49,0500,50.5,0,58,44.9,43.9,83,31,13
8/26/23,69.7,1456,49.6,0645,47.8,0,54.1,41.7,38.4,71,29,13
8/25/23,69,1450,49.6,0524,51.5,0,57.9,46.1,46.2,80,45,13
8/24/23,70.6,1102,49.7,0624,50.4,0,55.2,45.2,43.4,83,25,13
8/23/23,69.1,1344,46.2,0445,51.2,0,59.1,45.1,47.9,96,44,13
8/22/23,59.4,1332,47.4,0357,48.4,0,52.7,44.9,45.7,92,60,13
8/21/23,55.7,1437,44.5,2052,47.7,0,52.6,43.4,46.5,96,78,13
8/20/23,55.5,1518,47.5,0352,49.6,0,52.4,46.8,48.5,97,80,13
8/19/23,69.3,1109,49.4,1540,50.2,0,57.9,45.7,46.2,94,35,13
8/18/23,71.8,1204,51,2247,50.3,0,57.7,45.5,45.2,88,36,13
8/17/23,74.3,1427,54,0513,54.5,0,61.1,45.7,49,89,35,13
8/16/23,80.2,1243,52.1,0239,53.1,0,61.3,46.9,46.4,86,23,13
8/15/23,74.9,1137,51.7,0507,52.2,0,61.7,47.6,46.6,87,25,13
8/14/23,74.8,1134,52.6,2336,53,0,59.8,48.6,48.4,90,36,13
8/13/23,79.4,1353,53.7,0632,53.9,0,62.9,49.5,46.7,80,23,13
8/12/23,78.2,1408,52,0607,53.8,0,61.4,48.1,47.8,80,27,13
8/11/23,74.5,1314,47.6,0503,49.4,0,58.4,40.7,42.1,75,30,12.7
8/10/23,71.4,1406,46,0456,45.3,0,54.6,34.8,33.4,64,18,12.7
8/9/23,69.2,1311,48.7,0529,47,0,54.2,38.8,36.3,61,23,13
8/8/23,71,1340,50,0628,50,0,57.4,44,42.1,71,32,13
8/7/23,71.2,1201,50.2,0549,49.2,0,54.7,44.9,40.1,73,24,13
8/6/23,74.5,1341,48.5,0506,50,0,58.4,43.2,42.2,74,31,13
8/5/23,72.2,1337,46.2,0440,47.9,0,55.7,35.8,39.4,82,22,13
8/4/23,71.4,1323,47.8,0517,48,0,56.7,36.4,39.8,76,30,13
8/3/23,68.8,1454,48.4,0540,45.9,0,56,37.6,34.9,71,22,13
8/2/23,70.9,1318,51.4,0444,48.7,0,56.6,41.6,39.6,64,28,13
8/1/23,73.1,1414,54.4,0103,48.2,0,56.6,41.8,36.4,60,24,13
7/31/23,72.7,1359,53.7,0518,46.5,0,54.4,40.4,30.1,42,18,13
7/30/23,73.9,1358,54.4,0617,47.6,0,54.2,42.6,32.7,49,19,13
7/29/23,72.1,1225,55.3,2357,46.7,0,55.1,42.5,30.5,45,15,13
7/28/23,73,1408,54.3,0313,47.4,0,55.3,39.5,31.6,41,20,13
7/27/23,71,1342,55,0503,49.2,0,56.4,43.4,37,47,28,13
7/26/23,74.8,1359,59,2034,48.3,0,56.4,40.8,30.6,61,11,13
7/25/23,74.8,1320,54.6,0123,45.6,0,54.8,39.7,24.5,34,13,13
7/24/23,71.9,1442,56.4,2315,48.5,0,53.4,39.5,34.7,47,18,13
7/23/23,78.6,1437,59.3,0449,53.3,0,62.3,47.3,41.6,60,16,13
7/22/23,82.6,1512,56.4,0243,51.2,0,64,42.8,37.3,54,13,13
7/21/23,81.7,1434,54.2,0532,49.8,0,62.4,42.4,35.5,58,12,13
7/20/23,79.2,1559,54.8,0307,50.5,0,59.2,42.1,38.7,58,19,13
7/19/23,75.4,1304,55.7,0517,52.6,0,60.9,47.3,43.7,63,33,13
7/18/23,76.1,1325,62,2343,53.6,0,60.7,47.7,42.5,60,24,13
7/17/23,77.9,1452,63.2,2139,55.4,0,62.9,47.3,44.9,59,21,13
7/16/23,84.6,1413,62.8,0544,52.3,0,62,44.3,34.6,48,11,13
7/15/23,84.3,1644,57.1,0534,51.9,0,61.2,44.8,36.8,59,11,13
7/14/23,83,1512,49.4,0321,51.4,0,63.3,42,41.4,67,15,13
7/13/23,74.8,1449,48.3,0503,45.2,0,56.4,36.7,30.4,55,11,13
7/12/23,69.2,1435,51.2,0103,47.2,0,54.5,42.5,36.5,58,24,13
7/11/23,70.7,1205,49,0439,46.1,0,56.4,36.4,33.4,58,20,13
7/10/23,70.3,1431,45,0456,45,0,52.9,36.3,32.1,77,18,13
7/9/23,67.8,1312,48.3,0401,47.3,0,56.9,40.6,39.2,70,35,13
7/8/23,71.2,1336,47.6,0557,48.3,0,56.5,40.7,40,75,27,13
7/7/23,68.9,1318,48,0334,47.5,0,55.6,41,39.6,73,34,13
7/6/23,70.3,1441,48.2,0608,48.2,0,57,41.2,39.7,71,32,13
7/5/23,75.6,1139,51.1,0336,51.2,0,59.9,45.5,43.9,74,29,13
7/4/23,75.1,1201,50.5,0350,50.3,0,59.4,42.7,41.8,66,24,13
7/3/23,74.4,1436,52.1,0506,49.5,0,57.8,42.9,39.4,67,25,13
7/2/23,78.2,1423,53.9,0533,50.5,0,58.5,44,39.4,60,22,13
7/1/23,78,1122,51.9,0544,52.4,0,60.8,44.6,43.8,76,26,13
6/30/23,76.6,1427,48.6,0441,49.8,0,59,42.1,40.9,69,27,13
6/29/23,70.1,1707,44.2,0605,45.9,0,53.3,39.4,36.7,73,28,13
6/28/23,63.9,1732,41.6,0325,44.4,0,51.4,39,38.1,84,35,13
6/27/23,62.5,1305,39.8,0340,44.4,0,52.4,37.7,39.5,90,43,13
6/26/23,59.9,1342,40,0305,44,0,50.8,37.9,39.6,87,47,13
6/25/23,58.6,1254,41,0219,43.5,0,50.4,37.8,39,85,53,13
6/24/23,62,1040,40.1,0353,44.6,0,51.6,38.1,40.1,88,42,13
6/23/23,58,1405,38,0221,42,0,49.5,36,36.7,94,42,13
6/22/23,58.4,1420,37.7,2146,39.7,0,47.1,34.5,32.7,94,31,13
6/21/23,58.4,1702,33.2,0323,37.5,0,46,30.8,29,81,30,13
6/20/23,50,1352,30.7,0439,32.7,0,39.8,27.2,22.8,84,22,13
6/19/23,45.1,1439,33.3,2349,31.7,0,38.2,26.6,19.4,79,21,13
6/18/23,57.2,1039,43.1,2301,44.8,0,49.8,38,39.4,78,45,13
6/17/23,63.8,1329,44.4,0156,45.2,0,52.6,38.2,36.6,62,33,13
6/16/23,67.9,1638,40.4,0536,41.5,0,50.3,35.2,31.4,66,20,13
6/15/23,66.5,1504,40.4,0631,44.3,0,54.5,37,38.8,89,36,13
6/14/23,62.2,0956,41.8,2327,46.4,0,53.9,38.2,43.2,95,51,13
6/13/23,61.1,1054,40.4,0350,44.8,0,54.3,39.6,43,96,59,13
6/12/23,56.7,1505,37.7,0119,42.8,0,52.5,36.8,41.4,95,69,13
6/11/23,61.6,1324,37.3,0339,42.3,0,52.7,36.8,40.2,98,50,13
6/10/23,57.6,1120,39.2,2357,42.1,0,49.4,38.5,39.7,96,56,13
6/9/23,56.9,1709,40,0053,42.7,0,48.6,36.6,38.7,88,47,13
6/8/23,59.4,1045,39.3,0404,42.1,0,50.4,37.3,39.1,92,44,13
6/7/23,61.6,1326,38.8,0452,42.5,0,51.3,36.2,38.2,94,35,13
6/6/23,60.9,1235,39.6,2351,42.2,0,50.2,37.1,37.4,86,45,13
6/5/23,64.3,1340,42.6,2223,43.2,0,50.6,38.6,36.9,78,38,13
6/4/23,64.5,1154,42.4,0429,42.6,0,49.3,38.6,35.6,87,27,13
6/3/23,62.1,1542,40.1,0517,42.8,0,48.9,37.4,36.8,86,30,13
6/2/23,60.4,1439,34.9,0421,39.7,0,49,31.3,32.9,84,20,13
6/1/23,55.1,1105,35.6,2328,39.9,0,46.2,30.1,34.4,87,45,13
5/31/23,57.2,1209,37.7,0459,41.9,0,49.7,34.5,38.5,92,49,13
5/30/23,59.4,1156,38.1,0339,41.6,0,50.8,36.9,38.8,94,48,13
5/29/23,56.4,1130,37.6,0114,42,0,48.9,35.7,39,93,53,13
5/28/23,56.1,1052,38.6,0511,40,0,46.5,36.7,36.3,92,43,13
5/27/23,58.6,1133,38.3,0503,42.1,0,48.9,36.5,38.4,90,47,13
5/26/23,52.8,1530,36.3,0352,40,0,47.2,34.8,37.3,92,58,13
5/25/23,58.6,1239,35.6,0408,38.8,0,46.4,33.6,35.5,94,42,13
5/24/23,56.3,1135,37.2,0653,39.4,0,47.1,34.4,34.5,87,39,13
5/23/23,58.3,1331,41.3,2359,43.2,0,49.4,35.4,37.4,85,35,13
5/22/23,63,1322,41.4,2144,44,0,49.5,38.4,37.8,84,35,13
5/21/23,65.4,1511,43.1,0635,44.9,0,53.1,39.9,39.8,84,44,13
5/20/23,64.9,1433,42.9,0647,45.1,0,53.8,39.5,40.3,82,49,13
5/19/23,65.1,1537,42.4,0442,43.7,0,52.4,38,37.3,77,41,13
5/18/23,65,1456,40.5,0642,40.3,0,48.6,34,30.5,72,25,13
5/17/23,63.4,1324,40.7,0611,39.4,0,46.1,33.2,25.7,63,18,13
5/16/23,63.2,1454,39.4,0603,40,0,46.5,34.1,29.6,67,26,13
5/15/23,59.9,1322,41.8,0331,41.8,0,46.3,36.1,33.4,86,33,13
5/14/23,58.3,1029,38.1,0604,39.8,0,47,34.4,35.1,93,41,13
5/13/23,61.5,1532,38.1,0438,39.9,0,46,34,30.4,70,30,13
5/12/23,60.7,1541,37.3,0627,39.2,0,45.8,33.5,30.1,72,32,13
5/11/23,56.7,1208,30.3,0529,36.7,0,44.5,28.9,31.3,90,37,13
5/10/23,47,1512,10.7,0054,35.9,0,40.4,8.8,31.2,87,51,8.6
